Probability
27 28 29 32 37 41 41 38 36 34 26 17 11 8 6 3 1 0 0 0 0 0 0 0 0 0 0 0 0 0 0 0 0 0 0 0 0 0 0 0 0 0 0
24 24 24 26 31 36 37 35 32 28 22 15 10 8 6 3 1 1 0 0 0 0 0 0 0 0 0 0 0 0 0 0 0 0 0 0 0 0 0 0 0 0 0
20 19 18 19 23 28 29 27 24 19 15 12 8 6 5 4 2 1 0 0 0 0 0 0 0 0 0 0 0 0 0 0 0 0 0 0 0 0 0 0 0 0 0
18 17 16 16 19 22 22 21 18 15 12 9 7 5 4 3 2 1 0 0 0 0 0 0 0 0 0 0 0 0 0 0 0 0 0 0 0 0 0 0 0 0 0
15 15 13 13 15 18 19 19 18 15 11 9 7 5 4 3 1 0 0 0 0 0 0 0 0 0 0 0 0 0 0 0 0 0 0 0 0 0 0 0 0 0 0
12 11 10 9 11 13 15 16 16 14 10 9 7 6 5 3 2 0 0 0 0 0 1 1 1 0 0 0 0 0 0 0 0 0 0 0 0 0 0 0 0 0 0
9 9 8 6 6 8 10 12 13 12 9 9 9 8 6 4 2 1 0 0 0 2 5 5 3 1 0 0 0 0 0 0 0 0 0 0 0 0 0 0 0 0 0
6 8 8 6 5 6 9 13 15 14 11 10 10 10 7 4 1 0 0 0 0 5 11 11 7 3 0 0 0 0 0 0 0 0 0 0 0 0 0 0 0 0 0
4 7 9 9 8 8 12 21 24 21 14 10 10 11 8 4 1 0 0 0 0 7 16 16 11 6 2 0 0 0 0 0 0 0 0 0 0 0 0 0 0 0 0
2 5 9 11 12 13 17 26 31 28 19 12 10 10 9 6 3 2 2 3 5 14 22 21 15 11 7 4 3 2 1 2 2 1 1 1 1 0 0 0 0 0 0
1 3 6 11 15 17 21 29 33 29 21 15 13 13 12 12 12 11 10 11 16 25 33 31 23 17 12 13 13 8 5 7 7 6 5 4 4 3 2 1 1 1 1
2 3 7 13 17 20 24 28 30 27 22 21 23 25 25 26 27 27 27 29 32 39 46 45 36 26 20 22 25 20 15 15 16 15 14 14 13 12 10 6 4 2 2
10 11 15 22 24 23 25 27 27 28 28 31 38 42 43 45 46 48 50 52 53 55 56 56 50 40 32 31 34 34 29 26 26 27 28 27 27 28 25 20 15 10 6
24 28 34 38 37 34 32 32 34 37 40 43 51 57 60 63 66 67 69 70 71 70 66 64 64 59 47 40 42 45 44 40 39 40 41 41 41 42 39 34 30 25 19
40 46 53 55 52 48 45 44 46 49 50 51 55 62 67 71 73 73 73 75 77 76 73 71 73 70 54 38 37 46 52 55 55 54 55 52 46 41 35 30 30 31 29
51 54 61 64 61 58 57 55 55 54 53 51 53 56 61 62 63 64 68 72 75 77 76 74 75 69 49 26 20 31 48 61 67 67 65 58 43 31 22 16 14 18 20
49 50 56 61 61 60 59 56 53 51 50 47 46 47 48 49 51 54 60 64 67 70 71 71 72 66 46 20 6 11 30 52 66 71 69 60 43 29 25 17 10 9 9
39 39 42 46 48 48 47 43 38 38 38 36 35 34 34 36 41 46 50 52 54 57 58 60 63 60 44 19 4 3 14 33 51 59 60 58 48 35 27 23 19 18 17
25 25 25 26 27 29 28 25 21 20 20 19 19 19 20 23 27 32 35 36 38 41 43 45 47 47 35 17 4 1 8 20 31 38 39 41 37 25 15 14 20 25 29
12 12 11 10 12 13 14 13 10 8 7 6 7 9 11 13 15 17 20 22 25 28 30 30 31 31 25 14 4 1 6 12 17 19 19 16 13 8 3 4 11 18 22
5 5 4 4 5 6 6 5 4 3 1 1 2 4 7 8 9 11 12 15 16 18 20 21 21 21 17 10 3 0 2 5 8 9 8 4 1 0 0 1 4 6 7
2 2 2 2 3 3 2 1 1 1 0 0 0 1 3 4 5 6 8 10 10 11 13 14 14 15 12 6 1 0 0 1 2 4 4 2 0 0 0 0 0 0 0
1 1 1 1 1 1 0 0 0 0 0 0 0 0 0 1 1 2 3 4 4 5 6 7 7 9 8 3 0 0 0 0 0 1 1 0 0 0 0 0 0 0 0
1 0 0 0 0 0 0 0 0 0 0 0 0 0 0 0 0 0 1 1 1 1 1 1 2 3 3 1 0 0 0 0 0 0 0 0 0 0 0 0 0 0 0
0 0 0 0 0 0 0 0 0 0 0 0 0 0 0 0 0 0 0 0 0 0 0 0 0 1 1 0 0 0 0 0 0 0 0 0 0 0 0 0 0 0 0
0 0 0 0 0 0 0 0 0 0 0 0 0 0 0 0 0 0 0 0 0 0 0 0 0 0 0 0 0 0 0 0 0 0 0 0 0 0 0 0 0 0 0
Wind_Speed
9 9 9 10 11 10 9 8 9 8 6 4 4 4 4 3 4 5 5 4 3 3 2 3 1 2 4 4 4 3 1 1 1 2 2 2 3 2 2 1 0 1 2
10 10 10 9 11 10 10 9 9 8 6 4 3 3 3 3 3 4 4 4 3 2 2 2 1 3 2 3 2 2 3 1 2 1 2 1 2 1 2 2 2 1 1
13 12 11 10 11 11 11 10 9 9 7 6 4 3 3 2 4 5 4 4 3 2 3 2 2 2 1 3 1 3 2 3 1 2 2 2 2 1 2 1 3 2 1
12 12 12 12 12 11 10 9 9 9 7 6 5 6 5 4 4 4 5 4 3 3 3 2 2 2 2 2 0 3 3 1 2 1 1 1 1 1 1 1 2 2 1
13 13 13 13 12 13 11 10 9 8 7 6 5 5 4 3 3 4 6 5 5 4 3 4 3 1 1 3 3 2 3 2 3 2 1 1 1 2 1 1 1 2 2
13 13 12 11 11 12 12 11 10 8 8 7 6 6 4 3 4 4 6 5 5 5 5 4 3 2 2 3 2 1 1 2 3 3 3 1 1 1 1 1 1 2 2
13 13 13 12 12 13 12 12 11 9 9 9 7 7 5 4 4 4 5 5 4 5 7 6 5 3 2 2 2 2 0 1 1 2 3 3 3 2 2 3 3 2 0
13 14 13 12 12 13 13 13 13 11 10 10 8 7 7 5 4 6 4 5 3 4 8 6 6 5 4 4 4 3 3 2 2 3 1 2 3 2 2 2 2 3 3
13 14 13 13 12 13 13 13 13 12 11 11 9 8 7 7 5 5 6 4 3 4 9 7 7 6 5 4 4 3 4 4 4 4 4 3 3 2 2 1 1 2 3
13 14 14 14 13 13 12 12 12 12 11 10 10 10 9 8 6 5 6 5 4 4 7 7 7 7 6 6 5 4 4 4 4 3 3 3 3 2 2 2 2 2 2
13 13 13 14 13 13 12 12 12 11 11 10 10 8 9 9 8 7 6 5 5 5 6 7 7 7 7 7 6 6 6 6 6 6 5 5 5 3 3 2 3 3 3
11 12 13 13 12 12 12 12 11 11 11 10 9 9 8 8 8 8 8 7 6 7 7 7 7 8 8 8 8 9 8 7 7 7 7 6 6 7 5 4 4 4 3
8 9 9 10 10 10 11 12 12 12 12 11 10 9 9 8 8 7 7 8 7 7 7 8 8 8 8 8 9 9 9 8 8 8 8 7 7 7 6 6 6 5 5
7 7 7 6 6 7 7 8 9 9 10 9 9 8 8 7 7 7 7 7 7 8 8 8 8 8 8 8 8 9 9 9 8 8 8 8 8 8 8 7 7 6 6
7 7 7 6 5 5 5 5 4 3 3 4 4 4 5 5 5 5 5 5 5 7 6 6 6 6 7 7 7 7 9 8 8 8 8 9 10 11 9 9 7 8 7
9 9 9 8 7 6 6 6 5 5 6 5 4 3 2 1 0 2 2 3 4 4 4 5 5 6 7 7 8 7 6 6 8 8 8 9 10 13 15 15 14 11 9
12 12 11 11 10 10 9 9 8 8 8 8 8 7 6 5 4 3 3 1 2 2 3 3 4 4 4 4 4 6 5 5 6 6 6 8 11 10 9 12 16 16 17
13 12 11 12 11 11 11 11 11 11 10 10 9 9 8 8 6 6 5 5 4 3 3 3 3 3 2 1 2 4 5 6 6 6 7 7 8 10 8 9 10 11 12
13 12 13 13 12 12 11 11 11 11 11 10 9 8 8 7 7 7 6 5 5 4 4 3 4 3 2 1 1 2 3 4 6 6 7 8 8 9 10 9 10 10 10
12 12 13 13 12 11 11 11 11 11 10 9 8 7 6 6 6 6 5 4 4 4 4 4 3 3 2 0 1 2 2 4 4 5 6 8 7 7 7 7 8 11 10
13 13 12 11 10 10 10 11 10 9 8 7 7 6 5 4 4 4 3 4 3 3 4 4 4 3 1 1 2 2 1 4 5 6 6 5 7 9 10 9 9 12 11
13 12 11 10 9 8 9 9 8 7 6 6 5 5 5 5 5 4 3 3 4 4 4 3 3 3 2 3 2 1 2 4 5 6 7 7 11 14 15 12 14 16 14
11 10 10 9 8 7 7 7 6 4 4 4 3 3 3 2 2 3 4 4 3 3 4 4 4 4 3 3 3 3 4 6 5 7 10 12 15 15 14 16 18 15 10
9 8 8 8 7 6 6 5 4 4 4 4 4 3 3 2 2 2 3 3 3 3 3 4 5 5 4 4 4 4 5 7 7 8 11 14 16 16 16 16 13 11 10
7 7 6 6 6 5 5 5 5 5 5 5 5 6 5 3 3 3 3 3 2 2 2 3 4 5 5 4 4 5 7 7 8 10 10 10 10 10 9 9 8 8 8
7 6 5 5 4 4 4 4 4 4 5 6 6 6 6 5 4 4 4 4 4 3 5 5 5 5 5 6 8 9 11 12 13 10 10 11 10 10 10 10 10 9 9
Wind_Direction
156 149 149 150 142 139 141 145 145 147 150 148 153 150 150 163 136 127 124 118 97 85 16 59 99 42 65 39 24 9 299 227 21 313 248 198 190 175 154 195 15 138 163
162 160 154 155 152 150 149 151 152 154 159 151 152 150 144 165 132 114 128 136 133 150 119 39 47 69 101 67 26 31 336 341 89 329 309 200 150 259 155 152 175 115 71
165 166 167 166 162 159 161 163 160 158 161 159 163 152 139 185 141 141 155 157 149 124 64 61 40 360 88 104 39 3 5 356 349 44 3 356 37 160 119 98 98 94 33
163 167 169 170 171 165 163 157 154 157 162 171 176 171 178 185 158 159 150 159 167 168 153 135 93 6 50 99 330 81 342 331 314 134 115 102 63 351 107 202 136 159 166
165 169 172 174 175 168 164 158 155 160 166 181 185 187 192 180 156 152 143 166 171 187 175 151 141 164 71 88 68 72 3 343 358 354 33 71 215 259 240 154 160 212 187
162 166 172 171 174 170 164 159 158 166 172 188 188 201 213 185 155 161 156 186 172 184 181 168 160 195 168 134 123 92 109 38 21 353 346 343 329 321 333 6 227 220 184
164 166 172 175 174 169 167 164 166 173 180 189 191 196 208 202 192 198 184 205 186 181 175 173 163 193 171 164 164 184 355 172 62 329 325 352 348 12 3 352 332 339 267
166 170 174 174 175 175 174 171 172 178 183 189 191 193 196 205 207 213 212 207 222 177 156 161 164 193 191 194 180 213 197 192 209 259 314 319 304 347 346 334 346 330 312
168 170 171 174 178 180 179 176 172 177 184 189 187 194 198 214 222 197 208 218 208 164 153 166 172 188 199 209 184 220 232 174 197 228 212 228 268 240 255 288 298 298 308
169 170 172 175 176 178 177 174 171 177 185 190 191 196 201 209 220 223 213 219 205 186 157 171 180 189 193 197 209 224 221 211 216 241 259 232 268 286 252 237 256 261 267
172 172 173 174 174 176 175 176 173 179 188 194 196 204 193 202 208 215 223 220 212 193 178 184 190 195 198 195 200 224 227 210 216 226 228 223 239 270 290 267 238 234 236
169 167 166 167 171 174 175 175 177 186 191 196 195 201 202 202 205 209 213 214 209 204 196 194 200 205 205 200 201 213 229 221 217 223 230 228 224 219 236 257 266 257 243
149 145 153 162 168 171 175 177 181 189 193 195 197 197 200 205 209 213 211 210 209 210 209 202 206 211 212 205 206 210 221 227 222 220 223 225 228 228 224 225 237 245 249
121 126 128 136 151 159 164 171 184 190 190 190 191 194 199 205 209 212 213 211 209 211 217 215 214 213 217 217 214 215 218 224 227 225 224 224 223 226 226 232 232 238 250
100 100 103 110 113 118 124 127 128 125 138 140 157 174 188 199 209 215 218 216 217 221 219 220 219 218 217 221 219 221 224 224 230 232 232 235 233 232 231 236 231 229 232
80 78 74 74 74 79 89 93 87 79 78 78 70 63 72 82 237 249 242 230 228 234 227 225 227 228 232 227 218 219 236 232 232 236 237 242 241 239 235 237 238 236 236
75 72 71 67 62 58 58 64 64 65 63 57 49 41 41 38 36 15 358 330 280 257 250 251 246 243 242 251 232 226 239 253 254 252 251 256 257 252 242 238 238 242 242
82 78 74 68 63 62 66 67 66 62 62 57 49 42 38 33 32 34 19 9 358 345 320 287 271 270 275 240 216 236 246 261 267 269 267 264 267 272 273 268 256 245 244
82 78 76 72 64 60 62 65 64 64 62 56 50 45 42 38 32 30 21 17 8 353 330 336 330 321 317 347 183 223 276 273 278 279 281 279 273 274 278 276 271 266 257
87 84 80 75 70 64 64 67 62 58 54 49 46 42 37 40 39 27 14 6 356 345 340 340 335 330 327 13 168 196 283 292 295 293 288 287 302 321 321 297 286 277 272
90 85 81 75 70 68 68 68 65 58 52 47 41 34 23 22 44 28 1 346 343 330 313 305 304 307 324 76 144 178 298 317 314 309 306 308 334 334 322 305 284 276 281
96 90 84 78 71 68 72 71 62 54 49 45 38 25 14 6 16 1 341 323 314 311 311 323 330 339 19 51 96 147 276 321 316 306 304 311 328 322 309 296 279 275 276
99 98 96 91 83 75 71 72 65 52 47 37 21 360 339 324 337 334 324 320 329 339 353 358 351 345 358 22 46 29 336 314 302 301 308 314 310 304 294 278 273 272 268
98 96 95 95 90 82 74 71 57 33 22 12 349 316 295 300 331 318 312 329 339 345 348 340 331 329 331 356 9 351 328 318 309 311 313 307 291 281 272 273 271 259 253
92 88 86 88 90 83 70 59 48 24 2 346 334 320 318 327 308 289 291 295 291 279 276 303 310 314 318 342 341 325 318 317 310 312 303 295 293 291 288 285 281 276 271
91 85 80 77 81 85 81 69 50 22 355 342 338 331 330 336 330 322 319 301 282 248 236 252 277 306 323 330 324 313 302 296 296 301 294 293 294 295 298 300 298 294 289